Regional Weather Roundup
Issued by NWS

Home | Current Version | Previous Version | Graphics & Text | Print | Product List | Glossary On
Versions: 1 2 3 4 5 6 7 8 9 10 11 12 13 14 15 16 17 18 19 20 21 22 23 24 25 26 27 28 29 30 31 32 33 34 35 36 37 38 39 40 41 42 43 44 45 46 47 48 49 50
000
ASUS43 KLMK 281910
RWRKY
KENTUCKY REGIONAL WEATHER ROUNDUP
NATIONAL WEATHER SERVICE LOUISVILLE KY
300 PM EDT THU MAY 28 2015

NOTE "FAIR" INDICATES FEW OR NO CLOUDS BELOW 12,000 FEET
WITH NO SIGNIFICANT WEATHER AND/OR OBSTRUCTIONS TO VISIBILITY.

KYZ001>023-026-027-061>063-070>075-282000-
WESTERN AND SOUTH CENTRAL KENTUCKY

CITY           SKY/WX    TMP DP  RH WIND       PRES   REMARKS
PADUCAH        MOSUNNY   83  65  54 S9        30.14F
HENDERSON      MOSUNNY   81  66  61 S8        30.14S
OWENSBORO      PTSUNNY   83  70  64 S10G16    30.15F
HOPKINSVILLE   PTSUNNY   81  65  59 SE8       30.15F
BOWLING GREEN  MOSUNNY   82  63  52 SE8G17    30.18F
GLASGOW        MOSUNNY   78  62  58 E9        30.19F
$$

KYZ024-025-028>034-038-045-046-053-282000-
NORTH CENTRAL KENTUCKY

CITY           SKY/WX    TMP DP  RH WIND       PRES   REMARKS
LOUISVILLE/SDF CLOUDY    79  67  66 SE7       30.18F
LOUISVILLE/LOU PTSUNNY   78  66  66 VRB7      30.19F
FORT KNOX      MOSUNNY   78  67  68 SE10      30.17S
$$

KYZ035>037-039>044-047>052-055>060-089>105-282000-
NORTHEAST KENTUCKY

CITY           SKY/WX    TMP DP  RH WIND       PRES   REMARKS
LEXINGTON      PTSUNNY   78  67  68 S3        30.21F
COVINGTON      MOSUNNY   79  65  62 VRB6      30.20F
FRANKFORT        N/A     79  65  62 VRB3      30.19F
$$

KYZ054-064>069-076>088-106>120-282000-
SOUTHEAST KENTUCKY

CITY           SKY/WX    TMP DP  RH WIND       PRES   REMARKS
JACKSON        CLOUDY    78  65  63 CALM      30.23F
LONDON         LGT RAIN  75  63  66 CALM      30.23F
SOMERSET       CLOUDY    72  66  83 CALM      30.23F
MIDDLESBORO    LGT RAIN  75  68  78 E5        30.23F
MONTICELLO     CLOUDY    76  68  76 VRB3      30.24F
$$




USA.gov is the U.S. government's official web portal to all federal, state and local government web resources and services.